Home   Weather   Edmonton   Past weeks
Flag for Canada

Past Weather in Edmonton, Alberta, Canada — Yesterday and Last 2 Weeks

Now
44 °F

Quite cool.


Feels Like: 43 °F
Forecast: 64 / 47 °F
Wind: 3 mph from Northeast

Location: Edmonton Municipal

Current Time: May 25, 2019 at 5:47:24 am

Latest Report: May 25, 2019 at 5:00 am


Visibility: N/A

Pressure: 29.95 "Hg (27.53 "Hg at 692m altitude)

Humidity: 96%

Dew Point: 43 °F

Location of EdmontonLocation

Past Weather in Edmonton — Graph

°F

Edmonton Temperature Yesterday

Maximum temperature yesterday: 58 °F (at 11:00 am)
Minimum temperature yesterday: 51 °F (at 2:00 pm)
Average temperature yesterday: 54 °F

High & Low Weather Summary for the Past Weeks

 TemperatureHumidityPressure
High73 °F (May 11, 6:00 pm)96% (May 15, 4:00 am)30.14 "Hg (May 15, 4:00 am)
Low39 °F (May 16, 5:00 am)13% (May 12, 6:00 pm)29.62 "Hg (May 12, 4:00 am)
Average56 °F46%29.94 "Hg
* Reported May 10 4:00 am — May 25 4:00 am, Edmonton. Weather by CustomWeather, © 2019

Note: Actual official high and low records may vary slightly from our data, if they occured in-between our weather recording intervals... More about our weather records

Advertising

Edmonton Weather History for the Previous 24 Hours

Scroll right to see more
 ConditionsComfort  
Time TempWeatherWind HumidityBarometerVisibility
4:00 am
Sat, May 25
45 °FCool.5 mph89%29.94 "HgN/A
3:00 am46 °FCool.6 mph95%29.93 "HgN/A
2:00 am47 °FCool.5 mph95%29.92 "HgN/A
1:00 am49 °FCool.5 mph94%29.91 "HgN/A
12:00 am51 °FCool.5 mph90%29.89 "HgN/A
11:00 pm
Fri, May 24
52 °FCool.5 mph86%29.88 "HgN/A
10:00 pm53 °FCool.6 mph86%29.88 "HgN/A
9:00 pm54 °FCool.5 mph85%29.86 "HgN/A
8:00 pm54 °FCool.5 mph81%29.85 "HgN/A
7:00 pm54 °FCool.8 mph79%29.85 "HgN/A
6:00 pm55 °FCool.8 mph78%29.83 "HgN/A
5:00 pm54 °FCool.10 mph86%29.83 "HgN/A
4:00 pm53 °FCool.7 mph86%29.83 "HgN/A
3:00 pm53 °FCool.7 mph91%29.83 "HgN/A
2:00 pm51 °FCool.7 mph95%29.84 "HgN/A
1:00 pm54 °FCool.10 mph88%29.83 "HgN/A
12:00 pm55 °FCool.7 mph85%29.82 "HgN/A
11:00 am58 °FCool.6 mph69%29.81 "HgN/A
10:00 am55 °FCool.7 mph79%29.82 "HgN/A
9:00 am54 °FCool.7 mph78%29.82 "HgN/A
8:00 am54 °FCool.3 mph72%29.81 "HgN/A
7:00 am52 °FCool.3 mph78%29.81 "HgN/A
6:00 am51 °FCool.5 mph82%29.81 "HgN/A
5:00 am52 °FCool.5 mph81%29.80 "HgN/A
Weather by CustomWeather, © 2019

See weather overview